FW0668 Weather Reports


time (UTC)temp
C
wind
direction
speed
KPH
gust
KPH
rain 1hr
cm
rain 24hr
cm
rain mn
cm
humidity
%
barometer
mb
20260905224503 31 343 8.0 17.7 0.00 0.00 0.00 70 1013.4
20260905224003 31 2 14.5 25.7 0.00 0.00 0.00 70 1013.4
20260905223503 31 359 12.9 22.5 0.00 0.00 0.00 70 1013.4
20260905223003 31 345 14.5 22.5 0.00 0.00 0.00 69 1013.1
20260905222503 32 351 14.5 25.7 0.00 0.00 0.00 70 1013.4
20260905222024 32 355 9.7 14.5 0.00 0.00 0.00 71 1013.4
20260905221503 32 352 12.9 25.7 0.00 0.00 0.00 70 1013.4
20260905221003 32 359 12.9 20.9 0.00 0.00 0.00 69 1013.4
20260905220524 32 352 12.9 16.1 0.00 0.00 0.00 69 1013.4
20260905220003 32 336 11.3 22.5 0.00 0.00 0.00 70 1013.1
20260905215524 32 350 11.3 16.1 0.00 0.00 0.00 69 1013.4
20260905215003 32 360 14.5 20.9 0.00 0.00 0.00 69 1013.1
20260905214503 32 349 11.3 14.5 0.00 0.00 0.00 70 1013.4
20260905214003 32 357 8.0 12.9 0.00 0.00 0.00 70 1013.1
20260905213503 32 349 12.9 24.1 0.00 0.00 0.00 71 1013.1
20260905213003 32 357 12.9 20.9 0.00 0.00 0.00 70 1013.1
20260905212503 32 347 12.9 20.9 0.00 0.00 0.00 68 1013.1
20260905212003 32 343 12.9 16.1 0.00 0.00 0.00 69 1013.1
20260905211503 33 17 12.9 22.5 0.00 0.00 0.00 68 1013.1
20260905211003 33 357 9.7 14.5 0.00 0.00 0.00 69 1013.1
20260905210503 33 353 11.3 22.5 0.00 0.00 0.00 68 1013.1
20260905210024 32 1 9.7 14.5 0.00 0.00 0.00 71 1013.4
20260905205503 32 342 9.7 14.5 0.00 0.00 0.00 72 1013.1
20260905205003 32 355 11.3 14.5 0.00 0.00 0.00 70 1013.4
20260905204503 32 354 11.3 16.1 0.00 0.00 0.00 69 1013.4
20260905204003 32 341 9.7 11.3 0.00 0.00 0.00 71 1013.4
20260905203503 32 353 12.9 16.1 0.00 0.00 0.00 71 1013.4
20260905203003 32 342 14.5 24.1 0.00 0.00 0.00 70 1013.4
20260905202503 32 337 11.3 22.5 0.00 0.00 0.00 71 1013.4
20260905202024 32 311 3.2 12.9 0.00 0.00 0.00 68 1013.4
20260905201503 32 331 8.0 16.1 0.00 0.00 0.00 69 1013.4
20260905201024 33 349 8.0 16.1 0.00 0.00 0.00 67 1013.4
20260905200503 33 329 6.4 14.5 0.00 0.00 0.00 66 1013.4
20260905200003 33 336 11.3 20.9 0.00 0.00 0.00 66 1013.8
20260905195503 33 351 14.5 25.7 0.00 0.00 0.00 64 1013.4
20260905195003 33 331 11.3 22.5 0.00 0.00 0.00 64 1013.4
20260905194503 33 336 8.0 11.3 0.00 0.00 0.00 67 1013.4
20260905194024 33 341 9.7 16.1 0.00 0.00 0.00 70 1013.8
20260905193503 33 351 9.7 17.7 0.00 0.00 0.00 67 1013.8
20260905193003 33 344 12.9 22.5 0.00 0.00 0.00 66 1013.8
20260905192503 33 300 3.2 6.4 0.00 0.00 0.00 66 1013.8
20260905192024 33 317 6.4 14.5 0.00 0.00 0.00 64 1013.8
20260905191503 33 334 11.3 20.9 0.00 0.00 0.00 65 1014.1
20260905191003 33 335 8.0 14.5 0.00 0.00 0.00 68 1014.1
20260905190503 32 334 8.0 11.3 0.00 0.00 0.00 69 1014.1
20260905190003 32 323 4.8 9.7 0.00 0.00 0.00 69 1014.1
20260905185524 33 334 11.3 11.3 0.00 0.00 0.00 65 1014.1
20260905185024 33 322 6.4 11.3 0.00 0.00 0.00 64 1014.1
20260905184503 33 320 4.8 11.3 0.00 0.00 0.00 68 1014.1
20260905184024 33 333 8.0 12.9 0.00 0.00 0.00 66 1014.1
20260905183503 32 360 8.0 17.7 0.00 0.00 0.00 68 1014.1
20260905183003 32 351 9.7 12.9 0.00 0.00 0.00 68 1014.5
20260905182503 33 348 11.3 17.7 0.00 0.00 0.00 65 1014.1
20260905182003 32 339 8.0 17.7 0.00 0.00 0.00 69 1014.1
20260905181503 32 358 11.3 17.7 0.00 0.00 0.00 68 1014.5
20260905181003 32 338 11.3 14.5 0.00 0.00 0.00 67 1014.5
20260905180503 33 325 1.6 6.4 0.00 0.00 0.00 66 1014.5
20260905180003 33 323 8.0 16.1 0.00 0.00 0.00 66 1014.5
20260905175503 33 320 9.7 14.5 0.00 0.00 0.00 66 1014.5
20260905175003 33 349 9.7 12.9 0.00 0.00 0.00 65 1014.5
20260905174524 33 318 8.0 11.3 0.00 0.00 0.00 66 1014.5
20260905174003 33 318 3.2 4.8 0.00 0.00 0.00 62 1014.5
20260905173503 33 311 4.8 9.7 0.00 0.00 0.00 66 1014.5
20260905173003 32 320 6.4 14.5 0.00 0.00 0.00 64 1014.5
20260905172503 32 326 3.2 11.3 0.00 0.00 0.00 66 1014.5
20260905172003 33 321 4.8 14.5 0.00 0.00 0.00 64 1014.5
20260905171524 33 314 6.4 16.1 0.00 0.00 0.00 65 1014.8
20260905171003 32 326 4.8 11.3 0.00 0.00 0.00 66 1014.8
20260905170524 32 333 6.4 12.9 0.00 0.00 0.00 67 1014.8
20260905170003 32 344 9.7 12.9 0.00 0.00 0.00 68 1014.8
20260905165503 32 325 6.4 11.3 0.00 0.00 0.00 69 1014.8
20260905165024 32 325 8.0 14.5 0.00 0.00 0.00 67 1014.8
20260905164503 32 299 3.2 12.9 0.00 0.00 0.00 67 1014.8
20260905164024 33 315 6.4 14.5 0.00 0.00 0.00 66 1014.8
20260905163503 32 291 4.8 11.3 0.00 0.00 0.00 70 1014.8
20260905163003 32 324 6.4 4.8 0.00 0.00 0.00 67 1014.8
20260905162503 32 265 3.2 6.4 0.00 0.00 0.00 70 1014.8
20260905162003 32 269 3.2 9.7 0.00 0.00 0.00 73 1014.8
20260905161503 32 272 3.2 3.2 0.00 0.00 0.00 70 1014.8
20260905161003 32 260 4.8 9.7 0.00 0.00 0.00 68 1014.8
20260905160503 32 265 4.8 6.4 0.00 0.00 0.00 69 1014.8
20260905160003 32 263 4.8 3.2 0.00 0.00 0.00 67 1014.8
20260905155503 32 278 4.8 11.3 0.00 0.00 0.00 67 1014.8
20260905155003 32 310 3.2 11.3 0.00 0.00 0.00 65 1014.8
20260905154503 32 318 4.8 9.7 0.00 0.00 0.00 67 1014.8
20260905154003 32 321 4.8 16.1 0.00 0.00 0.00 69 1014.8
20260905153503 32 278 0.0 1.6 0.00 0.00 0.00 72 1014.8
20260905153024 31 263 3.2 9.7 0.00 0.00 0.00 70 1014.8
20260905152524 31 268 8.0 9.7 0.00 0.00 0.00 72 1014.8
20260905152003 31 269 1.6 6.4 0.00 0.00 0.00 73 1014.8
20260905151503 31 264 3.2 9.7 0.00 0.00 0.00 72 1014.8
20260905150503 31 260 3.2 4.8 0.00 0.00 0.00 73 1014.8
20260905150003 31 262 3.2 6.4 0.00 0.00 0.00 73 1014.5
20260905145503 30 269 3.2 9.7 0.00 0.00 0.00 72 1014.5
20260905145003 30 271 3.2 11.3 0.00 0.00 0.00 73 1014.8
20260905144524 30 278 4.8 6.4 0.00 0.00 0.00 75 1014.5
20260905144003 30 269 3.2 4.8 0.00 0.00 0.00 76 1014.5
20260905143503 30 262 3.2 6.4 0.00 0.00 0.00 76 1014.5
20260905143003 30 269 3.2 6.4 0.00 0.00 0.00 78 1014.8
20260905142524 30 258 1.6 3.2 0.00 0.00 0.00 80 1014.8
20260905142003 29 265 1.6 6.4 0.00 0.00 0.00 81 1014.8
20260905141503 28 258 1.6 1.6 0.00 0.00 0.00 82 1014.8
20260905141003 28 270 1.6 4.8 0.00 0.00 0.00 83 1014.8
20260905140524 28 282 0.0 0.0 0.00 0.00 0.00 82 1014.8
20260905140004 28 250 1.6 3.2 0.00 0.00 0.00 83 1014.8
20260905135503 28 268 4.8 6.4 0.00 0.00 0.00 84 1014.8
20260905135003 27 269 3.2 9.7 0.00 0.00 0.00 85 1014.8
20260905134503 27 253 9.7 11.3 0.00 0.00 0.00 85 1014.5
20260905134024 27 257 8.0 9.7 0.00 0.00 0.00 85 1014.8
20260905133503 27 256 6.4 11.3 0.00 0.00 0.00 87 1014.8
20260905133003 27 257 6.4 11.3 0.00 0.00 0.00 89 1014.8
20260905132503 27 254 3.2 6.4 0.00 0.00 0.00 92 1014.8
20260905132024 26 255 3.2 6.4 0.00 0.00 0.00 92 1014.8
20260905131503 26 247 1.6 3.2 0.00 0.00 0.00 92 1014.8
20260905131003 26 237 3.2 3.2 0.00 0.00 0.00 94 1014.8
20260905130503 26 245 3.2 3.2 0.00 0.00 0.00 95 1014.8
20260905130003 25 244 1.6 3.2 0.00 0.00 0.00 95 1014.8
20260905125503 25 229 1.6 3.2 0.00 0.00 0.00 96 1014.8
20260905125003 25 229 1.6 1.6 0.00 0.00 0.00 96 1014.5
20260905124503 25 232 0.0 1.6 0.00 0.00 0.00 96 1014.8
20260905124003 25 220 0.0 1.6 0.00 0.00 0.00 97 1014.8
20260905123503 25 0 0.0 0.0 0.00 0.00 0.00 97 1014.5
20260905123003 24 0 0.0 0.0 0.00 0.00 0.00 97 1014.5
20260905122503 24 0 0.0 0.0 0.00 0.00 0.00 97 1014.8
20260905122003 24 0 0.0 0.0 0.00 0.00 0.00 97 1014.5
20260905121524 24 0 0.0 0.0 0.00 0.00 0.00 100 1014.5
20260905121003 23 0 0.0 0.0 0.00 0.00 0.00 100 1014.5
20260905120503 23 0 0.0 0.0 0.00 0.00 0.00 100 1014.5
20260905120003 23 0 0.0 0.0 0.00 0.00 0.00 100 1014.5
20260905115524 23 0 0.0 0.0 0.00 0.00 0.00 100 1014.1
20260905115003 23 0 0.0 0.0 0.00 0.00 0.00 97 1014.5
20260905114503 23 0 0.0 0.0 0.00 0.00 0.00 97 1014.5
20260905114003 23 227 0.0 0.0 0.00 0.00 0.00 97 1014.5
20260905113503 23 0 0.0 0.0 0.00 0.00 0.00 97 1014.1
20260905113003 23 0 0.0 0.0 0.00 0.00 0.00 97 1014.1
20260905112503 23 0 0.0 0.0 0.00 0.00 0.00 97 1014.1
20260905112003 23 0 0.0 0.0 0.00 0.00 0.00 96 1014.1
20260905111503 23 0 0.0 0.0 0.00 0.00 0.00 96 1014.1
20260905111024 23 0 0.0 0.0 0.00 0.00 0.00 96 1014.5
20260905110503 23 0 0.0 0.0 0.00 0.00 0.00 96 1014.1
20260905110003 24 0 0.0 0.0 0.00 0.00 0.00 96 1014.1
20260905105503 24 0 0.0 0.0 0.00 0.00 0.00 96 1014.1
20260905105003 24 0 0.0 0.0 0.00 0.00 0.00 95 1014.1
20260905104524 24 0 0.0 0.0 0.00 0.00 0.00 95 1014.1
20260905104003 24 0 0.0 0.0 0.00 0.00 0.00 95 1014.1
20260905103503 24 0 0.0 0.0 0.00 0.00 0.00 95 1014.5
20260905103003 24 0 0.0 0.0 0.00 0.00 0.00 95 1014.1
20260905102503 24 0 0.0 0.0 0.00 0.00 0.00 95 1014.5
20260905102024 24 0 0.0 0.0 0.00 0.00 0.00 95 1014.5
20260905101503 24 0 0.0 0.0 0.00 0.00 0.00 95 1014.5
20260905101024 24 0 0.0 0.0 0.00 0.00 0.00 96 1014.5
20260905100003 24 243 0.0 0.0 0.00 0.00 0.00 96 1014.5
20260905095503 24 0 0.0 0.0 0.00 0.00 0.00 96 1014.5
20260905095003 24 0 0.0 0.0 0.00 0.00 0.00 96 1014.5
20260905094524 24 290 0.0 0.0 0.00 0.00 0.00 96 1014.5
20260905094003 24 316 0.0 0.0 0.00 0.00 0.00 96 1014.5
20260905093503 24 322 0.0 3.2 0.00 0.00 0.00 96 1014.5
20260905093003 24 0 0.0 0.0 0.00 0.00 0.00 96 1014.5
20260905092503 24 0 0.0 0.0 0.00 0.00 0.00 96 1014.5
20260905092003 24 0 0.0 0.0 0.00 0.00 0.00 96 1014.1
20260905091503 24 0 0.0 0.0 0.00 0.00 0.00 96 1014.1
20260905091003 24 0 0.0 0.0 0.00 0.00 0.00 95 1014.1
20260905090503 24 0 0.0 0.0 0.00 0.00 0.00 96 1014.1
20260905090003 24 0 0.0 0.0 0.00 0.00 0.00 96 1014.5
20260905085503 24 313 0.0 0.0 0.00 0.00 0.00 97 1014.1
20260905085003 24 323 1.6 1.6 0.00 0.00 0.00 97 1014.1
20260905084503 24 326 3.2 3.2 0.00 0.00 0.00 97 1014.1
20260905084003 24 0 0.0 0.0 0.00 0.00 0.00 97 1014.1
20260905083524 23 0 0.0 0.0 0.00 0.00 0.00 100 1014.1
20260905083003 23 0 0.0 0.0 0.00 0.00 0.00 100 1014.1
20260905082503 23 0 0.0 0.0 0.00 0.00 0.00 97 1014.1
20260905082003 23 0 0.0 0.0 0.00 0.00 0.00 96 1014.1
20260905081503 23 0 0.0 0.0 0.00 0.00 0.00 96 1014.1
20260905081003 24 0 0.0 0.0 0.00 0.00 0.00 96 1014.1
20260905080503 24 0 0.0 0.0 0.00 0.00 0.00 97 1013.8
20260905080003 24 0 0.0 0.0 0.00 0.00 0.00 96 1013.8
20260905075503 24 0 0.0 0.0 0.00 0.00 0.00 96 1013.8
20260905075003 24 0 0.0 0.0 0.00 0.00 0.00 96 1014.1
20260905074503 24 0 0.0 0.0 0.00 0.00 0.00 96 1013.8
20260905073524 24 0 0.0 0.0 0.00 0.00 0.00 95 1013.8
20260905073003 24 153 0.0 0.0 0.00 0.00 0.00 95 1013.8
20260905072503 24 153 1.6 1.6 0.00 0.00 0.00 95 1013.8
20260905072003 24 150 1.6 1.6 0.00 0.00 0.00 94 1014.1
20260905071524 24 146 0.0 3.2 0.00 0.00 0.00 94 1014.1
20260905071003 24 0 0.0 0.0 0.00 0.00 0.00 94 1014.5
20260905070503 24 0 0.0 0.0 0.00 0.00 0.00 95 1014.5
20260905070003 24 0 0.0 0.0 0.00 0.00 0.00 94 1014.1
20260905065503 25 0 0.0 0.0 0.00 0.00 0.00 94 1014.5
20260905065003 25 0 0.0 0.0 0.00 0.00 0.00 94 1014.5
20260905064503 25 0 0.0 0.0 0.00 0.00 0.00 94 1014.5
20260905063503 25 0 0.0 0.0 0.00 0.00 0.00 93 1014.5
20260905063003 25 0 0.0 0.0 0.00 0.00 0.00 93 1014.5
20260905062503 25 0 0.0 0.0 0.00 0.00 0.00 93 1014.5
20260905062003 25 0 0.0 0.0 0.00 0.00 0.00 93 1014.5
20260905061503 25 0 0.0 0.0 0.00 0.00 0.00 93 1014.5
20260905061003 25 0 0.0 0.0 0.00 0.00 0.00 92 1014.5
20260905060503 25 0 0.0 0.0 0.00 0.00 0.00 92 1014.5
20260905060003 25 0 0.0 0.0 0.00 0.00 0.00 92 1014.5
20260905055524 25 0 0.0 0.0 0.00 0.00 0.00 92 1014.5
20260905055003 25 0 0.0 0.0 0.00 0.00 0.00 93 1014.5
20260905054503 25 0 0.0 0.0 0.00 0.00 0.00 94 1014.8
20260905054003 25 0 0.0 0.0 0.00 0.00 0.00 94 1014.8
20260905053503 25 0 0.0 0.0 0.00 0.00 0.00 94 1014.5
20260905053003 25 0 0.0 0.0 0.00 0.00 0.00 95 1014.8
20260905052003 25 0 0.0 0.0 0.00 0.00 0.00 94 1014.5
20260905051503 25 0 0.0 0.0 0.00 0.00 0.00 94 1014.8
20260905051003 25 0 0.0 0.0 0.00 0.00 0.00 94 1014.8
20260905050524 25 0 0.0 0.0 0.00 0.00 0.00 94 1014.8
20260905050003 25 0 0.0 0.0 0.00 0.00 0.00 93 1014.8
20260905045503 25 0 0.0 0.0 0.00 0.00 0.00 93 1014.8
20260905045003 25 0 0.0 0.0 0.00 0.00 0.00 93 1014.8
20260905044503 25 0 0.0 0.0 0.00 0.00 0.00 93 1014.8
20260905044024 25 0 0.0 0.0 0.00 0.00 0.00 93 1014.8
20260905043503 25 0 0.0 0.0 0.00 0.00 0.00 93 1014.8
20260905043003 25 0 0.0 0.0 0.00 0.00 0.00 93 1014.8
20260905042003 25 0 0.0 0.0 0.00 0.00 0.00 93 1014.8
20260905041524 25 0 0.0 0.0 0.00 0.00 0.00 93 1014.8
20260905041024 25 0 0.0 0.0 0.00 0.00 0.00 93 1015.2
20260905040524 25 0 0.0 0.0 0.00 0.00 0.00 94 1015.2
20260905040003 25 0 0.0 0.0 0.00 0.00 0.00 93 1015.2
20260905035503 25 0 0.0 0.0 0.00 0.00 0.00 93 1014.8
20260905035003 26 0 0.0 0.0 0.00 0.00 0.00 92 1014.8
20260905034503 26 0 0.0 0.0 0.00 0.00 0.00 91 1014.8
20260905034003 26 0 0.0 0.0 0.00 0.00 0.00 91 1015.2
20260905033503 26 0 0.0 0.0 0.00 0.00 0.00 90 1014.8
20260905033003 26 0 0.0 0.0 0.00 0.00 0.00 90 1015.2
20260905032503 26 0 0.0 0.0 0.00 0.00 0.00 91 1014.8
20260905032003 26 0 0.0 0.0 0.00 0.00 0.00 91 1014.8
20260905031503 26 0 0.0 0.0 0.00 0.00 0.00 90 1015.2
20260905031003 26 0 0.0 0.0 0.00 0.00 0.00 90 1015.2
20260905030503 26 0 0.0 0.0 0.00 0.00 0.00 91 1014.8
20260905030003 26 0 0.0 0.0 0.00 0.00 0.00 92 1015.2
20260905025524 26 0 0.0 0.0 0.00 0.00 0.00 92 1014.8
20260905025024 26 0 0.0 0.0 0.00 0.00 0.00 92 1014.8
20260905024503 26 0 0.0 0.0 0.00 0.00 0.00 91 1015.2
20260905024024 26 0 0.0 0.0 0.00 0.00 0.00 90 1014.8
20260905023503 26 0 0.0 0.0 0.00 0.00 0.00 90 1014.8
20260905023003 26 0 0.0 0.0 0.00 0.00 0.00 90 1014.8
20260905022503 27 0 0.0 0.0 0.00 0.00 0.00 88 1014.8
20260905022024 27 0 0.0 0.0 0.00 0.00 0.00 87 1014.8
20260905021503 27 0 0.0 0.0 0.00 0.00 0.00 87 1014.8
20260905021024 27 0 0.0 0.0 0.00 0.00 0.00 86 1014.8
20260905020503 27 0 0.0 0.0 0.00 0.00 0.00 86 1014.8
20260905020024 27 0 0.0 0.0 0.00 0.00 0.00 87 1014.8
20260905015503 27 0 0.0 0.0 0.00 0.00 0.00 86 1014.8
20260905015003 27 0 0.0 0.0 0.00 0.00 0.00 86 1014.5
20260905014503 27 0 0.0 0.0 0.00 0.00 0.00 85 1014.5
20260905014003 27 0 0.0 0.0 0.00 0.00 0.00 86 1014.5
20260905013503 28 0 0.0 0.0 0.00 0.00 0.00 85 1014.5
20260905013003 27 1 0.0 0.0 0.00 0.00 0.00 84 1014.5
20260905012503 27 348 1.6 3.2 0.00 0.00 0.00 87 1014.1
20260905012003 27 309 0.0 1.6 0.00 0.00 0.00 87 1014.1
20260905011503 28 321 4.8 9.7 0.00 0.00 0.00 86 1014.1
20260905011024 28 0 0.0 0.0 0.00 0.00 0.00 86 1014.1
20260905010503 28 0 0.0 0.0 0.00 0.00 0.00 86 1014.1
20260905010003 28 0 0.0 0.0 0.00 0.00 0.00 85 1013.8
20260905005503 28 0 0.0 0.0 0.00 0.00 0.00 83 1014.1
20260905005003 29 0 0.0 0.0 0.00 0.00 0.00 82 1013.8
20260905004524 30 211 0.0 0.0 0.00 0.00 0.00 78 1014.1
20260905004003 30 211 1.6 1.6 0.00 0.00 0.00 75 1013.8
20260905003524 30 211 0.0 1.6 0.00 0.00 0.00 76 1014.1
20260905003003 30 211 1.6 1.6 0.00 0.00 0.00 76 1013.8
20260905002503 30 223 0.0 3.2 0.00 0.00 0.00 77 1013.8
20260905002003 31 0 0.0 0.0 0.00 0.00 0.00 74 1013.8
20260905001503 31 0 0.0 0.0 0.00 0.00 0.00 74 1013.8
20260905001003 31 0 0.0 0.0 0.00 0.00 0.00 73 1013.4
20260905000503 31 0 0.0 0.0 0.00 0.00 0.00 71 1013.8
20260905000003 31 0 0.0 0.0 0.00 0.00 0.00 70 1013.8
20260904235524 31 0 0.0 0.0 0.00 0.00 0.00 70 1013.8
20260904235003 32 0 0.0 0.0 0.00 0.00 0.00 72 1013.8
20260904234003 32 0 0.0 0.0 0.00 0.00 0.00 72 1013.8
20260904233503 32 0 0.0 0.0 0.00 0.00 0.00 74 1013.8
20260904233003 32 0 0.0 0.0 0.00 0.00 0.00 74 1013.8
20260904232503 33 231 0.0 0.0 0.00 0.00 0.00 73 1013.8
20260904232003 33 230 0.0 1.6 0.00 0.00 0.00 70 1014.1
20260904231503 33 216 3.2 4.8 0.00 0.00 0.00 68 1013.8
20260904231003 33 217 3.2 3.2 0.00 0.00 0.00 68 1013.8
20260904230524 33 225 3.2 3.2 0.00 0.00 0.00 66 1013.8
20260904230024 33 230 0.0 0.0 0.00 0.00 0.00 66 1014.1
20260904225525 33 233 1.6 3.2 0.00 0.00 0.00 67 1013.8
20260904225003 33 225 3.2 3.2 0.00 0.00 0.00 64 1013.8